Regional Weather Roundup
Issued by NWS Newport/Morehead, NC

Current Version | Previous Version | Text Only | Print | Product List | Glossary On
Versions: 1 2 3 4 5 6 7 8 9 10 11 12 13 14 15 16 17 18 19 20 21 22 23 24 25 26 27 28 29 30 31 32 33 34 35 36 37 38 39 40 41 42 43 44 45 46 47 48 49 50
000 ASUS42 KMHX 052113 RWRMHX WEATHER ROUNDUP FOR EASTERN NORTH CAROLINA NATIONAL WEATHER SERVICE NEWPORT/MOREHEAD CITY NC 400 PM EST FRI FEB 05 2016 NOTE: "FAIR" INDICATES FEW OR NO CLOUDS BELOW 12,000 FEET WITH NO SIGNIFICANT WEATHER AND/OR OBSTRUCTIONS TO VISIBILITY NCZ015>017-031-032-045>047-102-103-052200- NORTH COAST CITY SKY/WX TMP DP RH WIND PRES REMARKS EDENTON PTSUNNY 46 30 53 NW9G18 30.29R ELIZABETH CITY SUNNY 44 28 53 N13 30.27R KITTY HAWK CLEAR 44 27 51 N12G18 30.26R MANTEO MOSUNNY 43 28 54 N16 30.27R $$ NCZ045>047-081-094-103-104-052200- CENTRAL COAST CITY SKY/WX TMP DP RH WIND PRES REMARKS FRISCO MOSUNNY 45 32 60 N8G24 30.28R SWANQUARTER N/A 45 N/A N/A N13 30.27R $$ NCZ095-097-098-100-101-052200- SOUTHERN COAST CITY SKY/WX TMP DP RH WIND PRES REMARKS BEAUFORT PTSUNNY 46 32 58 N8 30.29R CEDAR ISLAND N/A 45 N/A N/A NW8G20 30.36R JACKSONVILLE MOSUNNY 47 29 49 NW10 30.29R PINEY ISLAND PTCLDY N/A N/A N/A N14 30.30R WILMINGTON SUNNY 50 30 46 N13 30.29R $$ NCZ011>013-027>030-043-044-078>080-089-090>093-098-052200- COASTAL PLAIN CITY SKY/WX TMP DP RH WIND PRES REMARKS AHOSKIE SUNNY 44 24 46 NW7 30.30R CLINTON SUNNY 49 26 40 N6 30.31R ELIZABETHTOWN SUNNY 49 22 34 N6 30.30R GOLDSBORO SUNNY 48 23 37 N13G18 30.28R GREENVILLE SUNNY 46 28 49 N8 30.31R HAVELOCK MOSUNNY 47 30 51 NE12 30.30R KENANSVILLE N/A 47 27 44 NW8 30.31S KINSTON SUNNY 48 27 43 NW10 30.30R NEW BERN MOSUNNY 46 29 51 N12 30.30R RICHLANDS MOSUNNY 46 27 46 NW7 30.30R ROCKY MOUNT SUNNY 46 23 40 N9 30.30R WASHINGTON MOSUNNY 46 27 48 NW3 30.30R WHITEVILLE SUNNY 49 24 37 N8 30.29S $$ AMZ130-135-150-152-154-156-158-170-250-252-270-ANZ085-086-088-633-658-670-052200- MARINE OBSERVATIONS STATION/POSITION TIME TEMP WIND PRES WAVE SWELL AIR SEA DIR/SP/G HT/PER HT/PER (UTC) (F) (DEG/KT/KT) (MB) (FT/S) (FT/S) CHESAPEAKE LIGHT 2100 41 350/ 22/ 23 1025.1 64 E VA BEACH 2050 44 54 340/ 25/ 31 1023.2 11/10 7/10 DUCK 2000 42 45 350/ 19/ 23 1023.5 2 E DUCK 2011 45 N/A 7/ 9 2/11 OREGON INLET 2000 43 48 340/ 16/ 22 1024.2 13E OREGON INLT 2100 46 N/A 10/ 8 3/11 HATTERAS CG 2000 43 54 350/ 22/ 25 1024.0 DIAMOND BUOY 2050 69 360/ 21/ 25 1024.8 8/10 5/10 CAPE LOOKOUT NOT AVBL BEAUFORT LAB 2000 44 53 10/ 15/ 19 1024.4 30 SE NEW RVR IN 2008 47 65 1023.6 30 SE NEW RVR IN 2025 65 N/A 5/ 5 27 SE WRIGHTSVLE NOT AVBL 5 SE WRIGHTSVLE 2008 47 54 360/ 10/ 14 1025.6 225 S CAPE HAT 2050 58 69 360/ 23/ 31 N/A 13/ 8 41 SE CHARLESTON 2050 49 68 10/ 16/ 21 1025.2 5/ 6 2/ 8 $$

USA.gov is the U.S. government's official web portal to all federal, state and local government web resources and services.